Weather History for KCRW - September, 2013

Change the Weather History Date:

Monday, September 30, 2013

  Actual Average Record
Temperature  
Mean Temperature 67 °F 62 °F  
Max Temperature 75 °F 73 °F 97 °F (1929)
Min Temperature 58 °F 51 °F 34 °F (1947)
Degree Days  
Heating Degree Days 0 5  
Month to date heating degree days 39 55  
Since 1 July heating degree days 42 58  
Cooling Degree Days 2 2  
Month to date cooling degree days 115 127  
Year to date cooling degree days 1081 1073  
Growing Degree Days 16 (Base 50)    
Moisture  
Dew Point 61 °F    
Average Humidity 82    
Maximum Humidity 100    
Minimum Humidity 64    
Precipitation  
Precipitation T in 0.10 in 1.37 in (1902)
Month to date precipitation 2.49 3.25  
Year to date precipitation 36.53 34.36  
Snow  
Snow 0.00 in - - ()
Month to date snowfall 0.0  
Since 1 September snowfall 0.0  
Snow Depth 0.00 in    
Sea Level Pressure  
Sea Level Pressure 30.03 in    
Wind  
Wind Speed 1 mph (WNW)    
Max Wind Speed 8 mph    
Max Gust Speed 14 mph    
Visibility 6 miles    
Events Fog , Rain    
T = Trace of Precipitation, MM = Missing Value Source: NWS Daily Summary

Daily Weather History Graph

Daily Weather History Graph

Search for Another Location

Airport or City:

Trip Planner

Search our weather history database for the weather conditions in past years. The results will help you decide how hot, cold, wet, or windy it might be!

Date:

Astronomy

Sep. 30, 2013 Rise Set
Actual Time 7:21 AM EDT 7:10 PM EDT
Civil Twilight 6:55 AM EDT 7:36 PM EDT
Nautical Twilight 6:24 AM EDT 8:07 PM EDT
Astronomical Twilight 5:53 AM EDT 8:38 PM EDT
Moon 3:00 AM EDT (9/30) 4:37 PM EDT (9/30)
Length of Visible Light 12h 41m
Length of Day
11h 48m
Waning Crescent, 19% of the Moon is Illuminated
Sep 30
Waning Crescent
Oct 4
New
Oct 11
First Quarter
Oct 18
Full
Oct 26
Last Quarter

Hourly Weather History & Observations

Time (EDT) Temp. Dew Point Humidity Pressure Visibility Wind Dir Wind Speed Gust Speed Precip Events Conditions
12:54 AM 61.0 °F 61.0 °F 100% 30.02 in 10.0 mi Calm Calm - N/A   Overcast
1:35 AM 60.8 °F 60.8 °F 100% 30.04 in 4.0 mi Calm Calm - N/A   Mostly Cloudy
1:54 AM 60.1 °F 60.1 °F 100% 30.03 in 4.0 mi Calm Calm - N/A   Mostly Cloudy
2:54 AM 60.1 °F 60.1 °F 100% 30.02 in 4.0 mi Calm Calm - N/A   Mostly Cloudy
3:54 AM 57.9 °F 57.9 °F 100% 30.02 in 4.0 mi Calm Calm - N/A   Overcast
4:54 AM 59.0 °F 59.0 °F 100% 30.03 in 0.5 mi Calm Calm - N/A Fog Fog
5:54 AM 57.9 °F 57.9 °F 100% 30.03 in 0.5 mi Calm Calm - N/A Fog Fog
6:54 AM 57.9 °F 57.9 °F 100% 30.04 in 0.5 mi Calm Calm - N/A Fog Fog
7:54 AM 57.9 °F 57.9 °F 100% 30.06 in 0.5 mi Calm Calm - N/A Fog Fog
8:54 AM 60.1 °F 60.1 °F 100% 30.06 in 0.8 mi Calm Calm - N/A   Mostly Cloudy
9:54 AM 63.0 °F 62.1 °F 97% 30.06 in 6.0 mi Calm Calm - N/A   Mostly Cloudy
10:54 AM 66.9 °F 63.0 °F 87% 30.06 in 9.0 mi Calm Calm - N/A   Mostly Cloudy
11:54 AM 70.0 °F 62.1 °F 76% 30.05 in 10.0 mi WSW 4.6 mph - N/A   Mostly Cloudy
12:54 PM 73.9 °F 60.1 °F 62% 30.03 in 10.0 mi Variable 3.5 mph - N/A   Mostly Cloudy
1:54 PM 70.0 °F 62.1 °F 76% 30.03 in 10.0 mi WNW 4.6 mph - 0.00 in Rain Light Rain
2:54 PM 71.1 °F 62.1 °F 73% 30.01 in 10.0 mi NW 3.5 mph - 0.00 in   Overcast
3:54 PM 71.1 °F 61.0 °F 70% 30.00 in 10.0 mi Calm Calm - N/A   Overcast
4:54 PM 71.1 °F 62.1 °F 73% 30.00 in 10.0 mi Calm Calm - N/A   Overcast
5:54 PM 69.1 °F 63.0 °F 81% 30.00 in 10.0 mi ESE 3.5 mph - N/A   Mostly Cloudy
6:54 PM 68.0 °F 64.0 °F 87% 30.01 in 10.0 mi Calm Calm - N/A   Mostly Cloudy
7:54 PM 66.9 °F 64.0 °F 90% 30.02 in 10.0 mi Calm Calm - N/A   Mostly Cloudy
8:54 PM 64.0 °F 64.0 °F 100% 30.04 in 10.0 mi Calm Calm - N/A   Mostly Cloudy
9:54 PM 63.0 °F 63.0 °F 100% 30.05 in 7.0 mi Calm Calm - N/A   Mostly Cloudy
10:00 PM 62.6 °F 62.6 °F 100% 30.06 in 4.0 mi Calm Calm - N/A   Mostly Cloudy
10:54 PM 62.1 °F 62.1 °F 100% 30.04 in 6.0 mi Calm Calm - N/A   Mostly Cloudy
11:54 PM 60.1 °F 60.1 °F 100% 30.04 in 6.0 mi Calm Calm - N/A   Scattered Clouds